STARLINK-33966 (64203 NORAD) Tracking and Keplerian Element Data

This shows tracking and keplerian element data for the satellite.

Feedback or suggestion? Click here.




ElementValue
Catalog64203
NameSTARLINK-33966
Epoch Orbit3238
Epoch Day354.1815101
Epoch Year2025
RAAN48.8465
Inclination53.1591
Eccentricity0.0001309
Argument of Perigee93.3694
Mean Anonmoly266.7457
Mean Motion15.30210303
Decay Rate0.00027773
L11 64203U 25117A 25354.18151010 .00027773 00000+0 94601-3 0 9995
L22 64203 53.1591 48.8465 0001309 93.3694 266.7457 15.30210303 32384



Live tracking and technical data element details for STARLINK-33966 (NORAD 64203). STARLINK-33966 can be tracked NOW for your location showing map with azimuth and elevation plus other details from your city location.







IsCatalogInMostPopularTable: catalog: 64203, numindb: 10
Update: records affected: 1



GetName: 64203 STARLINK-33966

Hit Count: updated at: Thu, 16 Apr 2026 05:41:33 GMT